Tracking 29487 objects as of 10-Sep-2024
HD Live streaming from Space Station
objects crossing your sky now

SHIYAN 6 02 (SY-6 02)

Track SHIYAN 6 02 (SY-6 02) now!
10-day predictions


NORAD ID: 45859
Int'l Code: 2020-043A
Perigee: 607.1 km
Apogee: 794.4 km
Inclination: 98.2 °
Period: 98.6 minutes
Semi major axis: 7071 km
RCS: Unknown
Launch date: July 4, 2020
Source: People's Republic of China (PRC)
Launch site: Jiuquan Satellite Launch Center, China (JSC)
Your satellite tracking list
Your tracking list is empty




NASA's NSSDC Master Catalog

Two Line Element Set (TLE):
1 45859U 20043A   24254.01716809  .00002151  00000-0  40712-3 0  9995
2 45859  98.1986 261.1753 0132403  81.5092 280.1088 14.59871842222683
Source of the keplerian elements: AFSPC